[[{"header":{"parameterUnit":"m.s-1","parameterCategory":1,"la1":30.2992,"la2":30.254,"lo1":-89.0895,"lo2":-89.0443,"dy":0.0025,"dx":0.0025,"nx":19,"ny":19,"refTime":"2026-03-25T03:00:00:Z","depth":0,"parameterNumber":2,"parameterNumberName":"U-component_of_WINDS"},"data":[0,0,0,-1.6967,-1.6968,-1.7028,-1.7028,-1.7109,-1.711,0,0,0,0,0,0,0,0,0,0,0,-1.6952,-1.6953,-1.6967,-1.6968,-1.7028,-1.7028,-1.7109,-1.711,0,0,0,0,0,0,0,0,0,0,0,-1.6952,-1.6953,-1.6953,-1.6969,-1.7028,-1.7028,-1.7109,-1.7062,0,0,0,0,0,0,0,0,0,0,-1.7004,-1.6993,-1.6952,-1.6953,-1.6969,-1.7028,-1.7028,-1.706,-1.7065,-1.7085,0,-1.7102,0,-1.7107,-1.7116,-1.7116,0,0,0,-1.6966,-1.6988,-1.7002,-1.6954,-1.697,-1.7028,-1.7,-1.7063,-1.7069,-1.7092,-1.7103,-1.7106,-1.7109,-1.7116,-1.7117,-1.7234,-1.7235,0,0,-1.6963,-1.6964,-1.6998,-1.7006,-1.6997,-1.6999,-1.7002,-1.7066,-1.7079,-1.7104,-1.7108,-1.711,-1.7117,-1.7118,-1.7234,-1.7235,0,0,0,-1.6955,-1.6962,-1.6974,-1.7003,-1.7013,-1.7,-1.7005,-1.7077,-1.708,-1.7109,-1.7111,-1.7118,-1.7119,-1.7233,-1.7234,-1.7267,0,0,0,-1.6953,-1.6958,-1.6973,-1.6974,-1.7012,-1.7045,-1.7013,-1.7076,-1.7083,-1.7111,-1.7118,-1.7119,-1.7232,-1.7234,-1.7265,-1.7282,0,0,0,-1.6947,-1.6957,-1.6966,-1.6974,-1.7,-1.7044,-1.7052,-1.7077,-1.7085,-1.7116,-1.712,-1.7232,-1.7233,-1.7262,-1.7279,-1.7314,0,0,0,-1.6942,-1.6995,-1.6967,-1.7027,-1.6999,-1.7064,-1.7051,-1.71,-1.7131,-1.7118,-1.7232,-1.7234,-1.7262,-1.7276,-1.7311,-1.7343,-1.7356,0,0,-1.7009,-1.7003,-1.7038,-1.7015,-1.7085,-1.7055,-1.7131,-1.7158,-1.716,-1.721,-1.7212,-1.7265,-1.7278,-1.7313,-1.7431,-1.7442,0,0,0,-1.706,-1.7086,-1.7104,-1.7134,-1.7156,-1.7176,-1.7192,-1.7202,-1.7244,-1.7185,-1.7287,-1.7295,-1.7315,-1.7331,-1.734,-1.7357,-1.7241,-1.7241,-1.7241,-1.7158,-1.7157,-1.7216,-1.7223,-1.7252,-1.7268,-1.7292,-1.7308,-1.7299,-1.7323,-1.7338,-1.741,-1.7428,-1.7434,-1.7452,-1.7355,-1.7355,-1.7355,-1.7355,-1.7257,-1.7293,-1.728,-1.7332,-1.7332,-1.7376,-1.7394,-1.7386,-1.7427,-1.7399,-1.7416,-1.7385,-1.7446,-1.7462,-1.7358,-1.7357,-1.7357,-1.7357,-1.7357,-1.7321,-1.7338,-1.7349,-1.7392,-1.7426,-1.7431,-1.7471,-1.747,-1.7468,-1.7486,-1.7501,-1.7501,-1.75,-1.7493,-1.7494,-1.7494,-1.7494,-1.7494,-1.7495,-1.7382,-1.7394,-1.7428,-1.7456,-1.7475,-1.75,-1.7517,-1.7536,-1.7556,-1.7552,-1.7552,-1.7541,-1.7452,-1.743,-1.7498,-1.7498,-1.7497,-1.7497,-1.7497,-1.7482,-1.7459,-1.7512,-1.7531,-1.7564,-1.7598,-1.7595,-1.7634,-1.7649,-1.7669,-1.7654,-1.7589,-1.7582,-1.7575,-1.7557,-1.7654,-1.7654,-1.7654,-1.7654,-1.7536,-1.7533,-1.7586,-1.7616,-1.7646,-1.7649,-1.7709,-1.7723,-1.7734,-1.7744,-1.7729,-1.7705,-1.7697,-1.7695,-1.7685,-1.7668,-1.7792,-1.7792,-1.7792,-1.7598,-1.7597,-1.7648,-1.7658,-1.7684,-1.7707,-1.7763,-1.7799,-1.7807,-1.7798,-1.7751,-1.7745,-1.7706,-1.7693,-1.7682,-1.7667,-1.7635,0,0]},{"header":{"parameterUnit":"m.s-1","parameterCategory":1,"la1":30.2992,"la2":30.254,"lo1":-89.0895,"lo2":-89.0443,"dy":0.0025,"dx":0.0025,"nx":19,"ny":19,"refTime":"2026-03-25T03:00:00:Z","depth":0,"parameterNumber":3,"parameterNumberName":"V-component_of_WINDS"},"data":[0,0,0,2.0114,2.0114,2.0126,2.0126,2.0148,2.0149,0,0,0,0,0,0,0,0,0,0,0,2.0114,2.0114,2.0114,2.0114,2.0126,2.0126,2.0148,2.0149,0,0,0,0,0,0,0,0,0,0,0,2.0114,2.0114,2.0115,2.0114,2.0126,2.0126,2.0148,2.0137,0,0,0,0,0,0,0,0,0,0,2.0124,2.0128,2.0114,2.0115,2.0114,2.0126,2.0126,2.0136,2.0137,2.0146,0,2.0154,0,2.0152,2.015,2.0151,0,0,0,2.0111,2.0127,2.0127,2.0115,2.0114,2.0126,2.012,2.0137,2.0138,2.0148,2.0154,2.0155,2.0152,2.0151,2.0151,2.021,2.0211,0,0,2.011,2.0118,2.0126,2.0128,2.0126,2.0119,2.012,2.0137,2.0145,2.0155,2.0156,2.0153,2.0151,2.0151,2.021,2.0211,0,0,0,2.011,2.0118,2.0117,2.0127,2.0129,2.012,2.0121,2.0145,2.0144,2.0156,2.0153,2.0151,2.0151,2.021,2.021,2.024,0,0,0,2.011,2.0118,2.0117,2.0122,2.0129,2.0137,2.0128,2.0143,2.0144,2.0153,2.0151,2.0152,2.0209,2.021,2.0238,2.0252,0,0,0,2.0112,2.0118,2.0121,2.0122,2.0128,2.0136,2.0136,2.0143,2.0143,2.0151,2.0152,2.0209,2.021,2.0236,2.0249,2.0271,0,0,0,2.0116,2.0146,2.0122,2.0155,2.0128,2.0155,2.0136,2.0155,2.0166,2.0151,2.0209,2.021,2.0236,2.0248,2.0269,2.029,2.03,0,0,2.0159,2.0152,2.0171,2.0149,2.0182,2.0152,2.019,2.0191,2.0184,2.0202,2.0203,2.0238,2.0249,2.027,2.035,2.0358,0,0,0,2.0187,2.0201,2.0208,2.0218,2.0221,2.0224,2.0219,2.022,2.0235,2.0195,2.0251,2.0258,2.027,2.0279,2.0286,2.0296,2.0215,2.0215,2.0215,2.0259,2.0249,2.028,2.0272,2.0283,2.0278,2.0286,2.0286,2.0272,2.0286,2.0291,2.0341,2.0353,2.0358,2.0368,2.0301,2.0301,2.0302,2.0302,2.0321,2.0339,2.0321,2.0345,2.0335,2.0354,2.0352,2.0342,2.0358,2.0336,2.0346,2.0322,2.0366,2.0375,2.0304,2.0303,2.0303,2.0303,2.0303,2.0367,2.0374,2.0375,2.039,2.0403,2.0394,2.0412,2.0401,2.0392,2.0402,2.0407,2.0406,2.0405,2.0405,2.0405,2.0405,2.0406,2.0406,2.0406,2.0414,2.0414,2.0431,2.0437,2.0443,2.045,2.0446,2.0452,2.0456,2.0447,2.0447,2.0433,2.0372,2.0358,2.0408,2.0408,2.0408,2.0407,2.0407,2.0481,2.0465,2.049,2.0496,2.0503,2.0517,2.0504,2.0517,2.052,2.053,2.0513,2.047,2.0462,2.0457,2.0445,2.0515,2.0515,2.0515,2.0515,2.052,2.0515,2.0539,2.055,2.056,2.0551,2.0581,2.0579,2.0574,2.0576,2.0564,2.0547,2.0542,2.0537,2.053,2.0518,2.0605,2.0605,2.0606,2.0561,2.0557,2.0583,2.0579,2.0585,2.0589,2.0617,2.063,2.0621,2.0609,2.0577,2.0573,2.0545,2.0536,2.0523,2.0512,2.0491,0,0]}]]